{"data":{"norad_id":39072,"intl_designator":"2013-005A","name":"GLOBALSTAR M097","alt_names":[],"object_type":"PAYLOAD","status":"ACTIVE","operator":null,"country":"GLOB","launch_date":"2013-02-06","launch_site_code":"TYMSC","launch_vehicle":null,"mission":null,"orbit_class":"UNKNOWN","rcs_meters":4.343,"size_class":null,"mass_kg":null,"dimensions":null,"purposes":["comms"],"wikipedia_slug":null,"has_3d_model":false,"image_url":null,"decayed_at":null,"tle_current":{"epoch":"2026-09-20T04:24:17.163072Z","epoch_age_seconds":45420,"freshness":"FRESH","line1":"1 39072U 13005A   26263.18353198 -.00000092  00000+0  66096-4 0  9999","line2":"2 39072  52.0058 314.1580 0000469 122.0655 238.0258 12.62271306628908","mean_motion":12.62271306,"eccentricity":4.69e-5,"inclination_deg":52.0058,"raan_deg":314.158,"arg_perigee_deg":122.0655,"mean_anomaly_deg":238.0258,"bstar":6.6096e-5,"rev_number":62890,"period_min":114.08007083384,"perigee_km":1413.2181157232,"apogee_km":1413.9489791105,"semimajor_km":7791.7205474168,"source":"CELESTRAK","updated_at":"2026-09-20T09:00:45.040791Z"}}}